Location: Arbon
(43.0005°N, 0.7472°E)
Time: 15:27:31
(UTC+00:00)

Courier 1B Rocket - Visible Passes

Search period start: 26 November 2020 00:00
Search period end: 06 December 2020 00:00
Orbit: 920 x 1202 km, 28.2° (Epoch: 25 November)

Date Brightness Start Highest point End Pass type
(mag) Time Alt. Az. Time Alt. Az. Time Alt. Az.
26 Nov 7.9 05:06:59 10° SSE 05:08:50 11° SSE 05:10:40 10° SE visible
27 Nov 7.6 05:55:25 10° SSW 06:00:27 19° SSE 06:05:22 10° ESE visible
28 Nov 7.6 04:55:25 10° S 04:59:34 15° SSE 05:03:40 10° SE visible
29 Nov 7.7 03:56:27 10° S 03:58:43 11° SSE 04:00:58 10° SE visible
29 Nov 7.3 05:45:31 10° SW 05:51:14 22° SSE 05:56:51 10° ESE visible
30 Nov 7.4 04:45:08 10° SSW 04:50:19 19° SSE 04:55:27 10° ESE visible
30 Nov 7.1 06:36:49 10° SW 06:43:00 26° S 06:49:02 10° SE visible
01 Dec 7.4 03:47:28 14° S 03:49:25 16° SSE 03:53:40 10° SE visible
01 Dec 7.1 05:35:57 10° SW 05:42:02 25° S 05:48:03 10° ESE visible
02 Dec 7.8 02:50:31 10° SE 02:50:31 10° SE 02:50:53 10° SE visible
02 Dec 7.1 04:36:54 15° SSW 04:41:05 23° SSE 04:46:50 10° ESE visible
02 Dec 7.1 06:27:36 10° SW 06:33:50 26° S 06:39:57 10° SE visible
03 Dec 7.1 03:39:53 19° SSE 03:40:09 19° SSE 03:45:21 10° ESE visible
03 Dec 6.9 05:26:37 10° SW 05:32:51 26° S 05:39:03 10° SE visible
04 Dec 7.8 02:42:47 11° SE 02:42:47 11° SE 02:43:28 10° SE visible
04 Dec 6.8 04:29:09 21° SSW 04:31:52 25° S 04:37:58 10° ESE visible
04 Dec 7.0 06:18:33 10° WSW 06:24:38 25° S 06:30:40 10° SE visible
05 Dec 7.0 03:32:02 22° SSE 03:32:02 22° SSE 03:36:39 10° ESE visible
05 Dec 6.9 05:18:24 13° SW 05:23:40 26° S 05:29:53 10° SE visible
